{"data":{"norad_id":68534,"intl_designator":"2026-068AC","name":"STARLINK-36299","alt_names":[],"object_type":"PAYLOAD","status":"ACTIVE","operator":null,"country":"US","launch_date":"2026-03-30","launch_site_code":"AFETR","launch_vehicle":null,"mission":null,"orbit_class":"UNKNOWN","rcs_meters":null,"size_class":null,"mass_kg":null,"dimensions":null,"purposes":["comms"],"wikipedia_slug":null,"has_3d_model":false,"image_url":null,"decayed_at":null,"tle_current":{"epoch":"2026-05-25T03:08:36.638304Z","epoch_age_seconds":57563,"freshness":"FRESH","line1":"1 68534U 26068AC  26145.13097961  .00020659  00000+0  62071-3 0  9992","line2":"2 68534  53.1585 133.1225 0001489 115.5528 244.5629 15.34408265  8661","mean_motion":15.34408265,"eccentricity":0.0001489,"inclination_deg":53.1585,"raan_deg":133.1225,"arg_perigee_deg":115.5528,"mean_anomaly_deg":244.5629,"bstar":0.00062071,"rev_number":866,"period_min":93.847252575898,"perigee_km":461.66007754159,"apogee_km":463.69727244961,"semimajor_km":6840.8156749956,"source":"CELESTRAK","updated_at":"2026-05-25T13:38:21.958517Z"}}}